| time (UTC) | temp F | wind direction | speed knots | gust knots | rain 1hr in | rain 24hr in | rain mn in | humidity % | barometer mb |
| 20260507090128 | 56 | 251 | 2.6 | 11.3 | 0.00 | 0.09 | 0.04 | 84 | 1008.5 |
| 20260507085357 | 55 | 226 | 1.7 | 7.0 | 0.00 | 0.09 | 0.04 | 86 | 1008.5 |
| 20260507084857 | 55 | 248 | 2.6 | 7.0 | 0.00 | 0.09 | 0.04 | 87 | 1008.5 |
| 20260507084357 | 55 | 273 | 3.5 | 7.8 | 0.00 | 0.09 | 0.04 | 87 | 1008.5 |
| 20260507083857 | 55 | 262 | 4.3 | 7.8 | 0.00 | 0.09 | 0.04 | 86 | 1008.6 |
| 20260507083356 | 56 | 246 | 4.3 | 7.8 | 0.00 | 0.09 | 0.04 | 84 | 1008.5 |
| 20260507082857 | 56 | 269 | 4.3 | 7.8 | 0.00 | 0.09 | 0.04 | 83 | 1008.4 |
| 20260507082357 | 57 | 292 | 4.3 | 10.4 | 0.00 | 0.09 | 0.04 | 80 | 1008.3 |
| 20260507081857 | 58 | 311 | 4.3 | 10.4 | 0.00 | 0.09 | 0.04 | 78 | 1008.2 |
| 20260507081357 | 58 | 204 | 5.2 | 10.4 | 0.00 | 0.09 | 0.04 | 76 | 1008.1 |
| 20260507080857 | 58 | 261 | 5.2 | 10.4 | 0.00 | 0.09 | 0.04 | 75 | 1008.0 |
| 20260507080357 | 59 | 188 | 3.5 | 8.7 | 0.00 | 0.09 | 0.04 | 76 | 1008.0 |
| 20260507075856 | 59 | 202 | 2.6 | 7.8 | 0.00 | 0.09 | 0.04 | 78 | 1007.9 |
| 20260507075357 | 59 | 267 | 3.5 | 9.6 | 0.00 | 0.09 | 0.04 | 77 | 1007.9 |
| 20260507074851 | 59 | 266 | 3.5 | 9.6 | 0.00 | 0.09 | 0.04 | 75 | 1007.9 |
| 20260507074349 | 59 | 261 | 2.6 | 8.7 | 0.00 | 0.09 | 0.04 | 78 | 1007.8 |
| 20260507073848 | 59 | 257 | 2.6 | 7.8 | 0.00 | 0.09 | 0.04 | 80 | 1007.8 |
| 20260507073612 | 58 | 237 | 2.6 | 10.4 | 0.00 | 0.09 | 0.04 | 80 | 1007.8 |
| 20260507072848 | 58 | 182 | 1.7 | 10.4 | 0.00 | 0.09 | 0.04 | 80 | 1007.7 |
| 20260507072349 | 57 | 269 | 2.6 | 6.1 | 0.00 | 0.09 | 0.04 | 81 | 1007.6 |
| 20260507071849 | 57 | 220 | 3.5 | 10.4 | 0.00 | 0.09 | 0.04 | 81 | 1007.6 |
| 20260507071349 | 57 | 169 | 4.3 | 10.4 | 0.00 | 0.09 | 0.04 | 80 | 1007.6 |
| 20260507070849 | 57 | 260 | 4.3 | 9.6 | 0.00 | 0.09 | 0.04 | 80 | 1007.4 |
| 20260507070349 | 57 | 184 | 4.3 | 11.3 | 0.00 | 0.09 | 0.04 | 80 | 1007.4 |
| 20260507065848 | 57 | 213 | 4.3 | 12.2 | 0.00 | 0.09 | 0.04 | 82 | 1007.6 |
| 20260507065348 | 56 | 248 | 5.2 | 12.2 | 0.00 | 0.09 | 0.04 | 83 | 1007.4 |
| 20260507065112 | 56 | 232 | 5.2 | 11.3 | 0.00 | 0.09 | 0.04 | 83 | 1007.6 |
| 20260507064349 | 56 | 273 | 2.6 | 10.4 | 0.00 | 0.09 | 0.04 | 84 | 1007.4 |
| 20260507063848 | 56 | 274 | 2.6 | 8.7 | 0.00 | 0.09 | 0.04 | 85 | 1007.4 |
| 20260507063349 | 56 | 257 | 4.3 | 8.7 | 0.00 | 0.09 | 0.04 | 84 | 1007.3 |
| 20260507063105 | 55 | 262 | 3.5 | 8.7 | 0.00 | 0.09 | 0.04 | 85 | 1007.3 |
| 20260507062348 | 55 | 263 | 4.3 | 10.4 | 0.00 | 0.09 | 0.04 | 85 | 1007.1 |
| 20260507061849 | 55 | 277 | 5.2 | 14.8 | 0.00 | 0.09 | 0.04 | 85 | 1007.1 |
| 20260507061349 | 55 | 209 | 5.2 | 14.8 | 0.00 | 0.09 | 0.04 | 86 | 1007.1 |
| 20260507060849 | 55 | 237 | 4.3 | 9.6 | 0.00 | 0.09 | 0.04 | 87 | 1007.0 |
| 20260507060349 | 55 | 236 | 3.5 | 8.7 | 0.00 | 0.09 | 0.04 | 88 | 1007.0 |
| 20260507060118 | 55 | 262 | 3.5 | 8.7 | 0.00 | 0.09 | 0.04 | 88 | 1006.9 |
| 20260507055348 | 54 | 288 | 2.6 | 8.7 | 0.00 | 0.09 | 0.04 | 88 | 1006.8 |
| 20260507054849 | 54 | 279 | 2.6 | 7.0 | 0.00 | 0.09 | 0.04 | 88 | 1006.8 |
| 20260507054348 | 54 | 275 | 2.6 | 7.0 | 0.00 | 0.09 | 0.04 | 89 | 1006.8 |
| 20260507054111 | 54 | 244 | 1.7 | 6.1 | 0.00 | 0.09 | 0.04 | 89 | 1006.7 |
| 20260507053618 | 54 | 218 | 1.7 | 4.3 | 0.00 | 0.09 | 0.04 | 89 | 1006.6 |
| 20260507052849 | 54 | 260 | 2.6 | 9.6 | 0.00 | 0.09 | 0.04 | 90 | 1006.6 |
| 20260507052347 | 53 | 254 | 4.3 | 9.6 | 0.00 | 0.09 | 0.04 | 90 | 1006.5 |
| 20260507051845 | 53 | 259 | 3.5 | 7.8 | 0.00 | 0.09 | 0.04 | 90 | 1006.5 |
| 20260507051339 | 53 | 243 | 2.6 | 8.7 | 0.00 | 0.09 | 0.04 | 91 | 1006.5 |
| 20260507050834 | 53 | 262 | 2.6 | 8.7 | 0.00 | 0.09 | 0.04 | 91 | 1006.5 |
| 20260507050554 | 53 | 271 | 2.6 | 7.0 | 0.00 | 0.09 | 0.04 | 91 | 1006.5 |
| 20260507045834 | 53 | 271 | 2.6 | 7.0 | 0.00 | 0.09 | 0.04 | 91 | 1006.4 |
| 20260507045334 | 53 | 247 | 3.5 | 7.0 | 0.00 | 0.09 | 0.04 | 91 | 1006.3 |
| 20260507044833 | 52 | 295 | 2.6 | 7.0 | 0.00 | 0.09 | 0.04 | 91 | 1006.2 |
| 20260507044332 | 52 | 248 | 1.7 | 7.0 | 0.00 | 0.09 | 0.04 | 91 | 1006.2 |
| 20260507043832 | 52 | 282 | 1.7 | 5.2 | 0.00 | 0.09 | 0.04 | 91 | 1006.2 |
| 20260507043329 | 52 | 274 | 1.7 | 5.2 | 0.00 | 0.09 | 0.04 | 91 | 1006.2 |
| 20260507042830 | 52 | 281 | 0.9 | 3.5 | 0.01 | 0.09 | 0.04 | 91 | 1006.1 |
| 20260507042331 | 52 | 278 | 1.7 | 5.2 | 0.01 | 0.09 | 0.04 | 91 | 1006.1 |
| 20260507042050 | 52 | 271 | 1.7 | 5.2 | 0.01 | 0.09 | 0.04 | 91 | 1006.0 |
| 20260507041330 | 52 | 296 | 1.7 | 5.2 | 0.01 | 0.09 | 0.04 | 91 | 1006.0 |
| 20260507040829 | 52 | 298 | 1.7 | 5.2 | 0.01 | 0.09 | 0.04 | 91 | 1006.0 |
| 20260507040330 | 52 | 248 | 1.7 | 5.2 | 0.01 | 0.09 | 0.04 | 91 | 1006.0 |
| 20260507040114 | 52 | 268 | 2.6 | 6.1 | 0.01 | 0.09 | 0.04 | 91 | 1005.9 |
| 20260507035330 | 52 | 265 | 2.6 | 7.0 | 0.01 | 0.09 | 0.04 | 91 | 1005.9 |
| 20260507034828 | 52 | 271 | 3.5 | 7.0 | 0.01 | 0.09 | 0.04 | 91 | 1005.8 |
| 20260507034328 | 52 | 251 | 4.3 | 10.4 | 0.01 | 0.09 | 0.04 | 92 | 1005.8 |
| 20260507033821 | 52 | 280 | 5.2 | 10.4 | 0.01 | 0.09 | 0.04 | 92 | 1005.8 |
| 20260507033315 | 52 | 276 | 4.3 | 8.7 | 0.01 | 0.09 | 0.04 | 92 | 1005.8 |
| 20260507032810 | 52 | 285 | 3.5 | 7.8 | 0.00 | 0.09 | 0.03 | 92 | 1005.8 |
| 20260507032306 | 52 | 274 | 3.5 | 7.8 | 0.00 | 0.09 | 0.03 | 92 | 1005.8 |
| 20260507031802 | 52 | 265 | 2.6 | 7.0 | 0.00 | 0.09 | 0.03 | 92 | 1005.8 |
| 20260507031302 | 52 | 180 | 2.6 | 7.0 | 0.00 | 0.09 | 0.03 | 92 | 1005.8 |
| 20260507030802 | 52 | 296 | 1.7 | 6.1 | 0.00 | 0.09 | 0.03 | 92 | 1005.8 |
| 20260507030307 | 52 | 251 | 0.9 | 6.1 | 0.00 | 0.09 | 0.03 | 92 | 1005.8 |
| 20260507025801 | 52 | 294 | 0.9 | 3.5 | 0.00 | 0.09 | 0.03 | 92 | 1005.7 |
| 20260507025525 | 52 | 275 | 1.7 | 6.1 | 0.00 | 0.09 | 0.03 | 92 | 1005.7 |
| 20260507024802 | 52 | 290 | 1.7 | 7.0 | 0.00 | 0.09 | 0.03 | 92 | 1005.7 |
| 20260507023800 | 52 | 276 | 2.6 | 6.1 | 0.00 | 0.09 | 0.03 | 92 | 1005.6 |
| 20260507023025 | 52 | 277 | 2.6 | 7.0 | 0.00 | 0.09 | 0.03 | 92 | 1005.6 |
| 20260507022306 | 52 | 271 | 0.9 | 3.5 | 0.00 | 0.09 | 0.03 | 91 | 1005.6 |
| 20260507021301 | 52 | 265 | 0.9 | 5.2 | 0.00 | 0.09 | 0.03 | 91 | 1005.5 |
| 20260507021025 | 52 | 266 | 0.9 | 5.2 | 0.00 | 0.09 | 0.03 | 91 | 1005.5 |
| 20260507020301 | 52 | 219 | 0.9 | 2.6 | 0.00 | 0.09 | 0.03 | 91 | 1005.5 |
| 20260507015801 | 52 | 274 | 0.0 | 1.7 | 0.00 | 0.09 | 0.03 | 91 | 1005.5 |
| 20260507015257 | 52 | 259 | 0.0 | 2.6 | 0.00 | 0.09 | 0.03 | 91 | 1005.4 |
| 20260507014752 | 52 | 259 | 0.0 | 2.6 | 0.00 | 0.09 | 0.03 | 91 | 1005.3 |
| 20260507014246 | 53 | 259 | 0.0 | 1.7 | 0.00 | 0.09 | 0.03 | 91 | 1005.3 |
| 20260507013742 | 53 | 259 | 0.0 | 1.7 | 0.00 | 0.09 | 0.03 | 91 | 1005.3 |
| 20260507013243 | 53 | 259 | 0.0 | 1.7 | 0.00 | 0.09 | 0.03 | 90 | 1005.3 |
| 20260507012742 | 53 | 260 | 0.0 | 0.9 | 0.00 | 0.09 | 0.03 | 90 | 1005.2 |
| 20260507012242 | 53 | 260 | 0.0 | 1.7 | 0.00 | 0.09 | 0.03 | 91 | 1005.3 |
| 20260507011742 | 53 | 259 | 1.7 | 5.2 | 0.00 | 0.09 | 0.03 | 91 | 1005.2 |
| 20260507011243 | 53 | 259 | 2.6 | 6.1 | 0.00 | 0.09 | 0.03 | 91 | 1005.2 |
| 20260507010742 | 53 | 263 | 3.5 | 7.0 | 0.00 | 0.09 | 0.03 | 91 | 1005.2 |
| 20260507010242 | 53 | 272 | 3.5 | 7.0 | 0.00 | 0.09 | 0.03 | 91 | 1005.2 |
| 20260507010010 | 53 | 258 | 4.3 | 7.0 | 0.00 | 0.09 | 0.03 | 91 | 1005.2 |
| 20260507005242 | 53 | 240 | 4.3 | 7.8 | 0.00 | 0.09 | 0.03 | 91 | 1005.2 |
| 20260507004741 | 53 | 261 | 3.5 | 7.8 | 0.00 | 0.09 | 0.03 | 91 | 1005.1 |
| 20260507004240 | 53 | 263 | 4.3 | 8.7 | 0.00 | 0.09 | 0.03 | 91 | 1005.0 |
| 20260507003740 | 53 | 254 | 4.3 | 8.7 | 0.00 | 0.09 | 0.03 | 91 | 1005.0 |
| 20260507003251 | 53 | 271 | 3.5 | 8.7 | 0.00 | 0.09 | 0.03 | 92 | 1004.9 |
| 20260507002740 | 54 | 259 | 3.5 | 7.0 | 0.00 | 0.09 | 0.03 | 91 | 1004.9 |
| 20260507002240 | 54 | 247 | 3.5 | 7.0 | 0.00 | 0.09 | 0.03 | 91 | 1004.8 |
| 20260507002002 | 54 | 249 | 2.6 | 6.1 | 0.00 | 0.09 | 0.03 | 91 | 1004.8 |
| 20260507001235 | 54 | 268 | 1.7 | 5.2 | 0.00 | 0.09 | 0.03 | 91 | 1004.7 |
| 20260507000735 | 54 | 257 | 1.7 | 6.1 | 0.00 | 0.09 | 0.03 | 91 | 1004.6 |
| 20260507000241 | 54 | 253 | 2.6 | 6.1 | 0.00 | 0.09 | 0.03 | 91 | 1004.7 |
| 20260506235731 | 54 | 295 | 2.6 | 6.1 | 0.00 | 0.09 | 0.03 | 91 | 1004.7 |
| 20260506235458 | 54 | 247 | 1.7 | 6.1 | 0.00 | 0.09 | 0.03 | 91 | 1004.7 |
| 20260506234731 | 54 | 263 | 2.6 | 7.0 | 0.00 | 0.09 | 0.03 | 91 | 1004.6 |
| 20260506234230 | 54 | 248 | 2.6 | 7.0 | 0.00 | 0.09 | 0.03 | 91 | 1004.7 |
| 20260506233953 | 54 | 259 | 1.7 | 5.2 | 0.00 | 0.09 | 0.03 | 91 | 1004.7 |
| 20260506233231 | 54 | 260 | 1.7 | 6.1 | 0.01 | 0.09 | 0.03 | 91 | 1004.7 |
| 20260506232729 | 54 | 247 | 1.7 | 6.1 | 0.01 | 0.09 | 0.03 | 91 | 1004.7 |
| 20260506232230 | 54 | 260 | 1.7 | 5.2 | 0.01 | 0.09 | 0.03 | 91 | 1004.7 |
| 20260506231730 | 55 | 238 | 0.9 | 5.2 | 0.02 | 0.09 | 0.03 | 91 | 1004.6 |
| 20260506231230 | 55 | 265 | 0.0 | 0.9 | 0.02 | 0.09 | 0.03 | 91 | 1004.6 |
| 20260506230729 | 55 | 266 | 0.9 | 3.5 | 0.02 | 0.09 | 0.03 | 91 | 1004.6 |
| 20260506230446 | 55 | 265 | 1.7 | 6.1 | 0.03 | 0.09 | 0.03 | 91 | 1004.7 |
| 20260506225949 | 55 | 266 | 2.6 | 7.0 | 0.04 | 0.09 | 0.03 | 91 | 1004.6 |
| 20260506225449 | 55 | 249 | 1.7 | 7.0 | 0.04 | 0.09 | 0.03 | 92 | 1004.6 |
| 20260506224729 | 55 | 264 | 0.0 | 1.7 | 0.04 | 0.09 | 0.03 | 92 | 1004.6 |
| 20260506224230 | 55 | 263 | 0.0 | 1.7 | 0.04 | 0.09 | 0.03 | 92 | 1004.6 |
| 20260506223729 | 55 | 263 | 0.0 | 1.7 | 0.05 | 0.09 | 0.03 | 92 | 1004.6 |
| 20260506223230 | 55 | 263 | 0.0 | 1.7 | 0.04 | 0.08 | 0.02 | 92 | 1004.5 |
| 20260506222729 | 55 | 263 | 0.9 | 6.1 | 0.05 | 0.08 | 0.02 | 92 | 1004.4 |
| 20260506222229 | 55 | 263 | 1.7 | 6.1 | 0.05 | 0.08 | 0.02 | 92 | 1004.4 |
| 20260506221957 | 55 | 263 | 0.9 | 3.5 | 0.04 | 0.07 | 0.02 | 92 | 1004.4 |
| 20260506221229 | 55 | 262 | 1.7 | 4.3 | 0.04 | 0.07 | 0.01 | 92 | 1004.4 |
| 20260506220953 | 55 | 261 | 1.7 | 7.0 | 0.03 | 0.06 | 0.01 | 92 | 1004.4 |
| 20260506220229 | 55 | 238 | 2.6 | 7.8 | 0.02 | 0.06 | 0.00 | 92 | 1004.4 |
| 20260506215729 | 55 | 259 | 4.3 | 7.8 | 0.02 | 0.05 | 0.05 | 92 | 1004.6 |
| 20260506215229 | 55 | 250 | 3.5 | 8.7 | 0.02 | 0.05 | 0.05 | 92 | 1004.6 |
| 20260506214729 | 56 | 240 | 1.7 | 8.7 | 0.02 | 0.05 | 0.05 | 93 | 1004.6 |
| 20260506214229 | 56 | 254 | 1.7 | 8.7 | 0.02 | 0.06 | 0.05 | 93 | 1004.6 |
| 20260506213727 | 56 | 256 | 1.7 | 8.7 | 0.01 | 0.06 | 0.04 | 93 | 1004.6 |
| 20260506213227 | 56 | 281 | 0.9 | 3.5 | 0.01 | 0.07 | 0.04 | 93 | 1004.5 |
| 20260506212724 | 56 | 269 | 0.9 | 6.1 | 0.00 | 0.07 | 0.03 | 93 | 1004.5 |
| 20260506212225 | 56 | 273 | 0.9 | 6.1 | 0.00 | 0.09 | 0.03 | 93 | 1004.6 |
| 20260506211725 | 56 | 250 | 0.0 | 2.6 | 0.00 | 0.09 | 0.03 | 93 | 1004.5 |
| 20260506211225 | 56 | 246 | 0.0 | 0.0 | 0.00 | 0.12 | 0.03 | 93 | 1004.2 |
| 20260506210725 | 56 | 245 | 0.0 | 0.0 | 0.00 | 0.13 | 0.03 | 93 | 1004.1 |
| 20260506210444 | 56 | 246 | 0.0 | 0.9 | 0.00 | 0.14 | 0.03 | 93 | 1003.9 |
| 20260506205721 | 56 | 246 | 0.0 | 1.7 | 0.00 | 0.16 | 0.03 | 92 | 1003.9 |
| 20260506205437 | 56 | 246 | 0.9 | 1.7 | 0.00 | 0.17 | 0.03 | 92 | 1003.9 |
| 20260506204721 | 56 | 246 | 0.0 | 1.7 | 0.00 | 0.20 | 0.03 | 92 | 1003.8 |
| 20260506204220 | 56 | 246 | 0.0 | 1.7 | 0.00 | 0.22 | 0.03 | 92 | 1003.9 |
| 20260506203941 | 56 | 245 | 0.0 | 0.9 | 0.00 | 0.24 | 0.03 | 92 | 1003.9 |
| 20260506203441 | 56 | 245 | 0.0 | 2.6 | 0.00 | 0.26 | 0.03 | 92 | 1003.8 |
| 20260506202721 | 56 | 246 | 0.0 | 2.6 | 0.00 | 0.28 | 0.03 | 92 | 1003.9 |
| 20260506202220 | 56 | 255 | 0.0 | 1.7 | 0.00 | 0.30 | 0.03 | 92 | 1003.8 |
| 20260506201721 | 56 | 257 | 0.0 | 0.0 | 0.00 | 0.31 | 0.03 | 92 | 1003.7 |
| 20260506201437 | 56 | 258 | 0.0 | 0.0 | 0.00 | 0.31 | 0.03 | 92 | 1003.5 |
| 20260506200716 | 56 | 257 | 0.0 | 0.0 | 0.00 | 0.31 | 0.03 | 92 | 1003.3 |
| 20260506200444 | 56 | 257 | 0.0 | 0.0 | 0.00 | 0.31 | 0.03 | 92 | 1003.3 |
| 20260506195715 | 57 | 257 | 0.0 | 0.9 | 0.00 | 0.31 | 0.03 | 91 | 1003.3 |
| 20260506194715 | 57 | 257 | 0.9 | 3.5 | 0.00 | 0.31 | 0.03 | 91 | 1003.5 |
| 20260506194432 | 57 | 259 | 0.9 | 3.5 | 0.00 | 0.31 | 0.03 | 91 | 1003.5 |
| 20260506193713 | 57 | 292 | 0.0 | 1.7 | 0.00 | 0.31 | 0.03 | 91 | 1003.5 |
| 20260506193434 | 57 | 292 | 0.0 | 2.6 | 0.00 | 0.31 | 0.03 | 90 | 1003.4 |
| 20260506192710 | 57 | 292 | 0.9 | 3.5 | 0.00 | 0.31 | 0.03 | 90 | 1003.4 |
| 20260506192208 | 57 | 292 | 0.9 | 3.5 | 0.00 | 0.31 | 0.03 | 90 | 1003.5 |
| 20260506191707 | 57 | 13 | 0.0 | 1.7 | 0.01 | 0.31 | 0.03 | 89 | 1003.3 |
| 20260506191207 | 57 | 13 | 0.9 | 2.6 | 0.01 | 0.31 | 0.03 | 89 | 1003.2 |
| 20260506190705 | 58 | 13 | 0.9 | 2.6 | 0.02 | 0.31 | 0.03 | 88 | 1003.1 |
| 20260506190203 | 58 | 13 | 0.0 | 1.7 | 0.02 | 0.31 | 0.03 | 87 | 1003.0 |
| 20260506185703 | 58 | 13 | 0.9 | 3.5 | 0.02 | 0.31 | 0.03 | 87 | 1003.0 |
| 20260506185203 | 58 | 13 | 1.7 | 3.5 | 0.02 | 0.31 | 0.03 | 86 | 1003.0 |
| 20260506184702 | 58 | 13 | 0.9 | 3.5 | 0.02 | 0.31 | 0.03 | 85 | 1002.9 |
| 20260506184204 | 59 | 13 | 0.0 | 2.6 | 0.02 | 0.31 | 0.03 | 85 | 1002.8 |
| 20260506183924 | 59 | 13 | 0.9 | 4.3 | 0.02 | 0.31 | 0.03 | 85 | 1002.6 |
| 20260506183203 | 59 | 13 | 1.7 | 4.3 | 0.02 | 0.31 | 0.03 | 84 | 1002.5 |
| 20260506182933 | 60 | 161 | 0.9 | 4.3 | 0.02 | 0.31 | 0.03 | 84 | 1002.5 |
| 20260506182203 | 60 | 167 | 0.9 | 4.3 | 0.02 | 0.31 | 0.03 | 83 | 1002.8 |
| 20260506181703 | 60 | 167 | 1.7 | 4.3 | 0.02 | 0.31 | 0.02 | 83 | 1003.0 |
| 20260506181426 | 61 | 167 | 1.7 | 3.5 | 0.02 | 0.31 | 0.02 | 82 | 1002.9 |
| 20260506180704 | 61 | 111 | 0.9 | 2.6 | 0.00 | 0.29 | 0.01 | 79 | 1002.8 |
| 20260506180203 | 61 | 113 | 0.0 | 2.6 | 0.00 | 0.29 | 0.01 | 79 | 1002.9 |
| 20260506175710 | 61 | 108 | 0.0 | 0.0 | 0.00 | 0.29 | 0.01 | 79 | 1002.8 |
| 20260506175203 | 61 | 108 | 0.0 | 0.0 | 0.00 | 0.29 | 0.01 | 78 | 1002.5 |
| 20260506174704 | 62 | 108 | 0.0 | 0.0 | 0.00 | 0.29 | 0.01 | 79 | 1002.4 |
| 20260506174203 | 62 | 108 | 0.0 | 1.7 | 0.00 | 0.29 | 0.01 | 78 | 1002.4 |
| 20260506173704 | 62 | 108 | 0.9 | 2.6 | 0.00 | 0.29 | 0.01 | 78 | 1002.4 |
| 20260506173426 | 63 | 108 | 1.7 | 2.6 | 0.00 | 0.29 | 0.01 | 79 | 1002.3 |
| 20260506172701 | 63 | 108 | 1.7 | 3.5 | 0.00 | 0.29 | 0.01 | 77 | 1002.3 |
| 20260506172434 | 63 | 108 | 0.9 | 3.5 | 0.00 | 0.29 | 0.01 | 75 | 1002.2 |
| 20260506171701 | 64 | 107 | 0.0 | 1.7 | 0.00 | 0.29 | 0.01 | 71 | 1002.1 |
| 20260506171201 | 64 | 107 | 0.0 | 1.7 | 0.00 | 0.29 | 0.01 | 70 | 1002.1 |
| 20260506170701 | 64 | 107 | 0.9 | 2.6 | 0.00 | 0.29 | 0.01 | 71 | 1002.0 |
| 20260506170201 | 65 | 109 | 0.9 | 2.6 | 0.00 | 0.29 | 0.01 | 72 | 1001.9 |
| 20260506165701 | 65 | 108 | 0.0 | 1.7 | 0.00 | 0.29 | 0.01 | 73 | 1002.0 |
| 20260506165202 | 65 | 109 | 0.0 | 0.0 | 0.00 | 0.29 | 0.01 | 71 | 1002.3 |
| 20260506164701 | 65 | 109 | 0.0 | 0.0 | 0.00 | 0.29 | 0.01 | 71 | 1002.4 |
| 20260506164424 | 65 | 109 | 0.0 | 0.9 | 0.00 | 0.29 | 0.01 | 70 | 1002.3 |
| 20260506163702 | 65 | 109 | 0.0 | 2.6 | 0.00 | 0.29 | 0.01 | 69 | 1002.2 |
| 20260506163201 | 66 | 109 | 0.9 | 2.6 | 0.00 | 0.29 | 0.01 | 69 | 1002.3 |
| 20260506162702 | 66 | 109 | 0.9 | 3.5 | 0.00 | 0.29 | 0.01 | 68 | 1002.3 |
| 20260506162201 | 66 | 109 | 0.9 | 3.5 | 0.00 | 0.29 | 0.01 | 67 | 1002.3 |
| 20260506161701 | 66 | 109 | 0.9 | 3.5 | 0.00 | 0.29 | 0.01 | 66 | 1002.4 |
| 20260506161158 | 66 | 109 | 1.7 | 6.1 | 0.00 | 0.29 | 0.01 | 65 | 1002.4 |
| 20260506160652 | 66 | 109 | 3.5 | 6.1 | 0.00 | 0.29 | 0.01 | 64 | 1002.5 |
| 20260506160152 | 67 | 114 | 3.5 | 7.0 | 0.00 | 0.29 | 0.01 | 64 | 1002.5 |
| 20260506155650 | 67 | 119 | 3.5 | 7.8 | 0.00 | 0.29 | 0.01 | 63 | 1002.6 |
| 20260506155150 | 67 | 152 | 4.3 | 7.8 | 0.00 | 0.29 | 0.01 | 63 | 1002.6 |
| 20260506154650 | 67 | 118 | 3.5 | 7.8 | 0.00 | 0.29 | 0.01 | 62 | 1002.7 |
| 20260506154150 | 67 | 130 | 1.7 | 6.1 | 0.00 | 0.29 | 0.01 | 63 | 1002.7 |
| 20260506153650 | 67 | 85 | 1.7 | 3.5 | 0.00 | 0.29 | 0.01 | 64 | 1002.7 |
| 20260506153150 | 67 | 85 | 1.7 | 3.5 | 0.00 | 0.29 | 0.01 | 66 | 1002.8 |
| 20260506152650 | 67 | 86 | 1.7 | 3.5 | 0.00 | 0.29 | 0.01 | 63 | 1002.9 |
| 20260506152148 | 67 | 86 | 0.9 | 2.6 | 0.00 | 0.29 | 0.01 | 60 | 1003.0 |
| 20260506151646 | 67 | 86 | 0.9 | 2.6 | 0.00 | 0.29 | 0.01 | 62 | 1003.0 |
| 20260506151146 | 67 | 86 | 0.9 | 1.7 | 0.00 | 0.29 | 0.01 | 58 | 1003.1 |
| 20260506150646 | 67 | 86 | 0.9 | 2.6 | 0.00 | 0.29 | 0.01 | 60 | 1003.1 |
| 20260506150405 | 67 | 86 | 0.9 | 2.6 | 0.00 | 0.29 | 0.01 | 62 | 1003.1 |
| 20260506145646 | 67 | 86 | 0.9 | 2.6 | 0.00 | 0.29 | 0.01 | 61 | 1003.2 |
| 20260506145147 | 67 | 86 | 0.9 | 5.2 | 0.00 | 0.29 | 0.01 | 62 | 1003.2 |
| 20260506144647 | 67 | 86 | 0.9 | 5.2 | 0.00 | 0.29 | 0.01 | 60 | 1003.1 |
| 20260506144409 | 68 | 82 | 0.9 | 4.3 | 0.00 | 0.29 | 0.01 | 59 | 1003.0 |
| 20260506143859 | 68 | 59 | 0.9 | 4.3 | 0.00 | 0.29 | 0.01 | 58 | 1003.2 |
| 20260506143138 | 67 | 39 | 0.9 | 3.5 | 0.00 | 0.29 | 0.01 | 58 | 1003.2 |
| 20260506142909 | 67 | 40 | 0.9 | 3.5 | 0.00 | 0.29 | 0.01 | 60 | 1003.3 |
| 20260506142138 | 67 | 44 | 1.7 | 3.5 | 0.00 | 0.29 | 0.01 | 62 | 1003.2 |
| 20260506141636 | 67 | 44 | 1.7 | 5.2 | 0.00 | 0.29 | 0.01 | 60 | 1003.2 |
| 20260506141400 | 67 | 47 | 1.7 | 5.2 | 0.00 | 0.29 | 0.01 | 60 | 1003.3 |
| 20260506140632 | 67 | 43 | 1.7 | 3.5 | 0.00 | 0.29 | 0.01 | 62 | 1003.4 |
| 20260506140356 | 67 | 43 | 1.7 | 3.5 | 0.00 | 0.29 | 0.01 | 59 | 1003.4 |
| 20260506135631 | 67 | 43 | 1.7 | 4.3 | 0.00 | 0.29 | 0.01 | 62 | 1003.5 |
| 20260506135132 | 67 | 40 | 2.6 | 7.0 | 0.00 | 0.29 | 0.01 | 60 | 1003.5 |
| 20260506134631 | 67 | 31 | 2.6 | 7.0 | 0.00 | 0.29 | 0.01 | 60 | 1003.5 |
| 20260506134132 | 67 | 41 | 2.6 | 5.2 | 0.00 | 0.29 | 0.01 | 61 | 1003.5 |
| 20260506133632 | 67 | 45 | 2.6 | 6.1 | 0.00 | 0.29 | 0.01 | 62 | 1003.5 |
| 20260506133132 | 67 | 23 | 2.6 | 6.1 | 0.00 | 0.29 | 0.01 | 59 | 1003.4 |
| 20260506132632 | 67 | 16 | 2.6 | 5.2 | 0.00 | 0.29 | 0.01 | 59 | 1003.5 |
| 20260506132405 | 67 | 9 | 2.6 | 5.2 | 0.00 | 0.29 | 0.01 | 58 | 1003.6 |
| 20260506131632 | 68 | 53 | 1.7 | 5.2 | 0.00 | 0.29 | 0.01 | 59 | 1003.6 |
| 20260506131131 | 69 | 12 | 1.7 | 3.5 | 0.00 | 0.29 | 0.01 | 56 | 1003.6 |
| 20260506130630 | 69 | 5 | 1.7 | 3.5 | 0.00 | 0.29 | 0.01 | 54 | 1003.7 |
| 20260506130130 | 69 | 290 | 1.7 | 3.5 | 0.00 | 0.29 | 0.01 | 55 | 1003.7 |
| 20260506125629 | 69 | 276 | 1.7 | 6.1 | 0.00 | 0.29 | 0.01 | 55 | 1003.9 |
| 20260506125130 | 69 | 278 | 3.5 | 7.8 | 0.00 | 0.29 | 0.01 | 56 | 1003.9 |
| 20260506124631 | 69 | 263 | 2.6 | 7.8 | 0.00 | 0.29 | 0.01 | 56 | 1004.0 |
| 20260506124130 | 69 | 294 | 1.7 | 6.1 | 0.00 | 0.29 | 0.01 | 58 | 1004.0 |
| 20260506123631 | 68 | 22 | 2.6 | 8.7 | 0.00 | 0.29 | 0.01 | 59 | 1004.0 |
| 20260506123129 | 67 | 263 | 2.6 | 8.7 | 0.00 | 0.29 | 0.01 | 58 | 1004.1 |
| 20260506122629 | 67 | 281 | 1.7 | 6.1 | 0.00 | 0.29 | 0.01 | 59 | 1004.2 |
| 20260506122129 | 67 | 286 | 2.6 | 8.7 | 0.00 | 0.29 | 0.01 | 57 | 1004.1 |
| 20260506121629 | 68 | 288 | 2.6 | 8.7 | 0.00 | 0.29 | 0.01 | 58 | 1004.1 |
| 20260506121131 | 68 | 263 | 2.6 | 7.0 | 0.00 | 0.29 | 0.01 | 58 | 1004.1 |
| 20260506120631 | 68 | 296 | 2.6 | 7.8 | 0.00 | 0.29 | 0.01 | 57 | 1004.1 |
| 20260506120130 | 69 | 248 | 2.6 | 7.8 | 0.00 | 0.29 | 0.01 | 59 | 1004.1 |
| 20260506115629 | 69 | 286 | 2.6 | 12.2 | 0.00 | 0.29 | 0.01 | 59 | 1004.1 |
| 20260506115403 | 69 | 301 | 3.5 | 12.2 | 0.00 | 0.29 | 0.01 | 57 | 1004.2 |
| 20260506114848 | 69 | 183 | 2.6 | 8.7 | 0.00 | 0.29 | 0.01 | 59 | 1004.2 |
| 20260506114131 | 68 | 250 | 2.6 | 8.7 | 0.00 | 0.29 | 0.01 | 59 | 1004.1 |
| 20260506113629 | 68 | 276 | 3.5 | 9.6 | 0.00 | 0.29 | 0.01 | 60 | 1004.2 |
| 20260506113354 | 67 | 265 | 4.3 | 10.4 | 0.00 | 0.29 | 0.01 | 60 | 1004.1 |
| 20260506112629 | 67 | 275 | 4.3 | 10.4 | 0.00 | 0.29 | 0.01 | 60 | 1004.0 |
| 20260506112142 | 67 | 221 | 4.3 | 7.8 | 0.00 | 0.29 | 0.01 | 61 | 1004.2 |
| 20260506111629 | 67 | 263 | 4.3 | 9.6 | 0.00 | 0.29 | 0.01 | 61 | 1004.4 |
| 20260506111129 | 67 | 266 | 3.5 | 9.6 | 0.00 | 0.29 | 0.01 | 62 | 1004.4 |
| 20260506110853 | 67 | 265 | 3.5 | 10.4 | 0.00 | 0.29 | 0.01 | 63 | 1004.4 |
| 20260506110132 | 66 | 207 | 5.2 | 13.0 | 0.00 | 0.29 | 0.01 | 61 | 1004.4 |
| 20260506105855 | 67 | 280 | 5.2 | 13.0 | 0.00 | 0.29 | 0.01 | 61 | 1004.5 |
| 20260506105132 | 67 | 261 | 3.5 | 11.3 | 0.00 | 0.29 | 0.01 | 64 | 1004.4 |
| 20260506104630 | 67 | 265 | 3.5 | 13.9 | 0.00 | 0.29 | 0.01 | 63 | 1004.5 |
| 20260506104349 | 66 | 223 | 2.6 | 13.9 | 0.00 | 0.29 | 0.01 | 67 | 1004.5 |
| 20260506103629 | 66 | 277 | 2.6 | 11.3 | 0.00 | 0.29 | 0.01 | 67 | 1004.4 |
| 20260506103130 | 65 | 190 | 3.5 | 10.4 | 0.00 | 0.29 | 0.01 | 67 | 1004.6 |
| 20260506102629 | 65 | 276 | 3.5 | 12.2 | 0.00 | 0.29 | 0.01 | 65 | 1004.6 |
| 20260506102129 | 65 | 191 | 3.5 | 12.2 | 0.00 | 0.29 | 0.01 | 66 | 1004.8 |
| 20260506101630 | 66 | 221 | 4.3 | 12.2 | 0.00 | 0.29 | 0.01 | 67 | 1004.7 |
| 20260506101129 | 66 | 209 | 4.3 | 13.0 | 0.00 | 0.29 | 0.01 | 66 | 1004.6 |
| 20260506100629 | 66 | 208 | 3.5 | 13.0 | 0.00 | 0.29 | 0.01 | 65 | 1004.6 |
| 20260506100129 | 66 | 171 | 3.5 | 8.7 | 0.00 | 0.29 | 0.01 | 64 | 1004.5 |
| 20260506095629 | 66 | 274 | 4.3 | 10.4 | 0.00 | 0.29 | 0.01 | 64 | 1004.6 |
| 20260506095353 | 66 | 177 | 3.5 | 10.4 | 0.00 | 0.29 | 0.01 | 66 | 1004.5 |
| 20260506094630 | 66 | 248 | 3.5 | 8.7 | 0.00 | 0.29 | 0.01 | 66 | 1004.5 |
| 20260506094129 | 66 | 199 | 3.5 | 8.7 | 0.00 | 0.29 | 0.01 | 65 | 1004.5 |
| 20260506093629 | 66 | 173 | 3.5 | 8.7 | 0.00 | 0.29 | 0.01 | 66 | 1004.6 |
| 20260506093129 | 65 | 260 | 2.6 | 8.7 | 0.00 | 0.29 | 0.01 | 67 | 1004.5 |
| 20260506092854 | 65 | 282 | 2.6 | 8.7 | 0.00 | 0.29 | 0.01 | 67 | 1004.4 |
| 20260506092352 | 64 | 275 | 2.6 | 8.7 | 0.00 | 0.29 | 0.01 | 66 | 1004.4 |
| 20260506091629 | 64 | 186 | 2.6 | 8.7 | 0.00 | 0.29 | 0.01 | 69 | 1004.5 |
| 20260506091129 | 64 | 280 | 2.6 | 10.4 | 0.00 | 0.29 | 0.01 | 68 | 1004.5 |